Location: Pine Mountain Observatory
(43.7910°N, 120.9377°W)
Time: 13:27:57
(UTC-07:00)

Transit 2A Rocket - Visible Passes

Search period start: 24 May 2019 00:00
Search period end: 03 June 2019 00:00
Orbit: 585 x 918 km, 66.7° (Epoch: 24 May)

Date Brightness Start Highest point End Pass type
(mag) Time Alt. Az. Time Alt. Az. Time Alt. Az.
24 May 8.0 00:43:58 10° N 00:46:20 12° NNE 00:48:38 10° NE visible
24 May 6.1 02:25:08 10° NNW 02:30:33 46° NE 02:35:29 10° SE visible
24 May 5.9 04:08:18 10° NW 04:12:53 28° WSW 04:16:54 11° SSW visible
25 May 6.8 01:42:49 10° NNW 01:47:46 30° NE 01:52:19 10° ESE visible
25 May 5.2 03:25:21 10° NW 03:30:38 48° WSW 03:33:41 22° S visible
26 May 7.4 01:00:36 10° N 01:04:51 21° NE 01:08:49 10° E visible
26 May 4.9 02:42:39 10° NNW 02:48:14 81° WSW 02:50:56 29° SSE visible
26 May 6.8 04:28:45 10° W 04:29:43 10° W 04:30:40 10° WSW visible
27 May 7.7 00:18:34 10° N 00:21:47 15° NNE 00:24:52 10° ENE visible
27 May 5.4 02:00:08 10° NNW 02:05:41 62° NE 02:08:27 27° SE visible
27 May 6.3 03:43:56 10° WNW 03:47:40 19° WSW 03:48:16 19° WSW visible
27 May 7.9 23:36:59 10° N 23:38:37 11° NNE 23:40:13 10° NE visible
28 May 6.2 01:17:44 10° NNW 01:23:00 39° NE 01:26:09 20° ESE visible
28 May 5.6 03:00:40 10° NW 03:05:30 33° WSW 03:06:00 32° WSW visible
29 May 6.9 00:35:28 10° NNW 00:40:09 26° NE 00:44:01 12° E visible
29 May 5.0 02:17:49 10° NW 02:23:12 57° WSW 02:23:52 53° SSW visible
29 May 7.4 23:53:19 10° N 23:57:11 18° NE 00:00:50 10° E visible
30 May 4.9 01:35:11 10° NNW 01:40:45 85° ENE 01:41:51 57° SE visible
30 May 6.9 03:20:05 10° WNW 03:21:41 13° W 03:21:41 13° W visible
30 May 7.6 23:11:24 10° N 23:14:06 13° NNE 23:16:41 10° ENE visible
31 May 5.6 00:52:42 10° NNW 00:58:09 52° NE 00:59:54 36° ESE visible
31 May 6.3 02:36:10 10° NW 02:39:46 23° W 02:39:46 23° W visible
01 Jun 6.4 00:10:22 10° NNW 00:15:24 34° NE 00:18:02 21° E visible
01 Jun 5.5 01:53:05 10° NW 01:57:54 39° WSW 01:57:54 39° WSW visible
01 Jun 7.0 23:28:07 10° NNW 23:32:31 23° NE 23:36:14 12° E visible
02 Jun 4.8 01:10:18 10° NW 01:15:45 69° WSW 01:16:06 66° SW visible
02 Jun 7.3 22:46:03 10° N 22:49:31 16° NNE 22:52:48 10° ENE visible
